Regional Weather Roundup
Issued by NWS

Home | Current Version | Previous Version | Graphics & Text | Print | Product List | Glossary Off
Versions: 1 2 3 4 5 6 7 8 9 10 11 12 13 14 15 16 17 18 19 20 21 22 23 24 25 26 27 28 29 30 31 32 33 34 35 36 37 38 39 40 41 42 43 44 45 46 47 48 49 50

000
ASUS43 KLSX 251207
RWRMO

WEATHER SUMMARY FOR MISSOURI
NATIONAL WEATHER SERVICE SPRINGFIELD MO
600 AM CST SUN FEB 25 2018

NOTE: "FAIR" INDICATES FEW OR NO CLOUDS BELOW 12,000 FEET WITH NO
       SIGNIFICANT WEATHER AND/OR OBSTRUCTIONS TO VISIBILITY.
       CURRENT SKY AND/OR WEATHER CONDITIONS ARE NOT AVAILABLE FOR
       CHILLICOTHE AND FARMINGTON.

MOZ001>031-035>038-043-044-053-054-251300-
...NORTHERN AND WESTERN MISSOURI...

CITY           SKY/WX    TMP DP  RH WIND       PRES   REMARKS
KANSAS CTY INT CLEAR     25  20  81 SW9       29.98R WCI  15
6HR MIN TEMP:  24; 6HR MAX TEMP:  31;

KANSAS C DTWN  CLEAR     27  21  78 SW3       30.00R
6HR MIN TEMP:  25; 6HR MAX TEMP:  35;

LEE`S SUMMIT   CLEAR     28  24  85 SW6       29.99R WCI  22
6HR MIN TEMP:  27; 6HR MAX TEMP:  33;

ST JOSEPH      CLEAR     25  21  85 S3        29.99R
6HR MIN TEMP:  23; 6HR MAX TEMP:  32;

CHILLICOTHE      N/A     27  22  81 CALM      29.98R
6HR MIN TEMP:  26; 6HR MAX TEMP:  33;

KIRKSVILLE     CLEAR     29  22  75 W9        29.93R WCI  20
6HR MIN TEMP:  29; 6HR MAX TEMP:  32;


$$
MOZ066>068-077>081-088>096-101>105-251300-
...SOUTHWEST MISSOURI...

CITY           SKY/WX    TMP DP  RH WIND       PRES   REMARKS
SPRINGFIELD    CLEAR     32  28  85 W3        30.01R
6HR MIN TEMP:  32; 6HR MAX TEMP:  36;

JOPLIN         CLEAR     28  28 100 SW3       30.04R
6HR MIN TEMP:  28; 6HR MAX TEMP:  33;


$$
MOZ032>034-039>042-045>050-055>058-069>072-251300-
...CENTRAL MISSOURI...

CITY           SKY/WX    TMP DP  RH WIND       PRES   REMARKS
COLUMBIA       CLEAR     31  26  82 W10       29.98R WCI  22
6HR MIN TEMP:  31; 6HR MAX TEMP:  36;

JEFFERSON CITY CLEAR     33  28  81 W5        30.01R WCI  29
6HR MIN TEMP:  33; 6HR MAX TEMP:  38;

ROLLA          CLEAR     30  29  96 W8        29.99R WCI  22
6HR MIN TEMP:  30; 6HR MAX TEMP:  37;

SEDALIA        CLEAR     32  28  85 W6        30.00R WCI  26
6HR MIN TEMP:  32; 6HR MAX TEMP:  35;

WHITEMAN AFB   CLEAR    N/A N/A N/A W6        29.96S
WARRENSBURG    CLEAR     28  27  93 W5        30.00S WCI  23
OSAGE BEACH    CLEAR     30  29  96 W3        30.01S

$$
MOZ051-052-059>065-251300-
...EAST CENTRAL MISSOURI...

CITY           SKY/WX    TMP DP  RH WIND       PRES   REMARKS
ST LOUIS INTL  CLEAR     35  30  82 W14       29.98R WCI  26
6HR MIN TEMP:  35; 6HR MAX TEMP:  42;

SPIRIT OF STL  CLEAR     35  31  85 W10       29.98R WCI  27
6HR MIN TEMP:  35; 6HR MAX TEMP:  43;

ST CHARLES       N/A     35  29  78 W12       29.97R WCI  27
6HR MIN TEMP:  35; 6HR MAX TEMP:  41;


$$
MOZ072>076-082>087-097>100-106>115-251300-
...SOUTH CENTRAL AND SOUTHEAST MISSOURI...

CITY           SKY/WX    TMP DP  RH WIND       PRES   REMARKS
CAPE GIRARDEAU FAIR      41  32  70 W5        30.06R
6HR MIN TEMP:  41; 6HR MAX TEMP:  56;

POPLAR BLUFF   FAIR      40  33  76 SW3       30.08R
6HR MIN TEMP:  40; 6HR MAX TEMP:  52;

WEST PLAINS    CLEAR     29  27  92 CALM      30.02R
6HR MIN TEMP:  29; 6HR MAX TEMP:  41;


$$


USA.gov is the U.S. government's official web portal to all federal, state and local government web resources and services.